DW7103 Yelm WA US current weather conditions

sailwx.info

Wind from 202 at 0 knots

Air temperature 16.1° C
Dewpoint 7.1° C

Last reported at 2020-Jul-10 18:00 UTC.
Time now 2020-Jul-10 19:12 UTC

Location: N 46°55' W 122°38'.
View on Google Maps.

See reports from other nearby stations

  
Tides and Currents Weather Stations Pressure Air Temp Water Temp Dewpoint Dewpoint Depression Visibility Wind Speed Wind Dir Waves Ship Positions
date/time (UTC)wind fromknots sea level pressurealtimeterstation pressurevisibilityair tempwater tempwave heightnotes
2020-Jul-10 18:00 202 0 16.1
2020-Jul-10 17:45 228 0 16.1
2020-Jul-10 17:30 197 0 15.6
2020-Jul-10 17:15 206 1 15.0
2020-Jul-10 17:00 184 0 15.0
2020-Jul-10 16:45 188 0 15.0
2020-Jul-10 16:30 198 0 15.0
2020-Jul-10 16:15 193 14.4
2020-Jul-10 16:01 193 0 14.4
2020-Jul-10 15:46 190 1 13.9
2020-Jul-10 15:31 200 13.9
2020-Jul-10 15:16 201 0 13.9
2020-Jul-10 15:00 178 0 13.9
2020-Jul-10 14:45 195 13.9
2020-Jul-10 14:30 192 1 13.3
2020-Jul-10 14:16 226 0 13.3
2020-Jul-10 14:01 157 13.3
2020-Jul-10 13:46 153 0 13.3
2020-Jul-10 13:31 210 0 12.8
2020-Jul-10 13:16 216 0 12.8
2020-Jul-10 13:00 163 0 12.8
2020-Jul-10 12:46 198 1 12.8
2020-Jul-10 12:31 241 12.2
2020-Jul-10 12:15 256 12.2
2020-Jul-10 12:00 202 12.2
2020-Jul-10 11:45 202 11.7
2020-Jul-10 11:30 202 11.7
2020-Jul-10 11:15 202 11.7
2020-Jul-10 11:00 202 11.7
2020-Jul-10 10:47 205 11.7
2020-Jul-10 10:32 205 11.7
2020-Jul-10 10:16 205 11.1
2020-Jul-10 10:01 205 11.1
2020-Jul-10 09:45 205 11.1
2020-Jul-10 09:31 205 11.1
2020-Jul-10 09:16 190 11.1
2020-Jul-10 09:00 190 11.1
2020-Jul-10 08:45 190 11.7
2020-Jul-10 08:31 190 11.7
2020-Jul-10 08:15 190 11.7
2020-Jul-10 08:00 190 12.2
2020-Jul-10 07:45 190 12.8
2020-Jul-10 07:30 190 13.3
2020-Jul-10 07:15 190 13.3
2020-Jul-10 07:01 190 13.9
2020-Jul-10 06:48 190 0 13.9
2020-Jul-10 06:32 186 14.4
2020-Jul-10 06:17 186 14.4
2020-Jul-10 06:01 188 15.0
2020-Jul-10 05:45 184 15.0
2020-Jul-10 05:31 186 15.6
2020-Jul-10 05:16 186 15.6
2020-Jul-10 05:01 186 16.1
2020-Jul-10 04:46 186 16.1
2020-Jul-10 04:30 186 16.7
2020-Jul-10 04:15 186 17.2
2020-Jul-10 04:00 186 17.8
2020-Jul-10 03:45 186 18.3
2020-Jul-10 03:31 190 18.3
2020-Jul-10 03:16 224 0 18.9
2020-Jul-10 03:01 177 18.9
2020-Jul-10 02:46 165 18.9
2020-Jul-10 02:31 165 0 19.4
2020-Jul-10 02:16 207 2 19.4
2020-Jul-10 02:00 230 0 20.0
2020-Jul-10 01:46 184 1 19.4
2020-Jul-10 01:30 180 1 20.0
2020-Jul-10 01:15 098 0 20.0
2020-Jul-10 01:02 200 2 19.4
2020-Jul-10 00:46 205 1 19.4
2020-Jul-10 00:30 182 0 18.9
2020-Jul-10 00:16 319 0 18.9
2020-Jul-10 00:01 196 0 19.4
2020-Jul-09 23:47 269 19.4
2020-Jul-09 23:30 194 0 19.4
2020-Jul-09 23:15 155 18.9
2020-Jul-09 23:00 191 18.9
2020-Jul-09 22:45 263 19.4
2020-Jul-09 22:30 335 0 18.9
2020-Jul-09 22:15 293 18.9
2020-Jul-09 22:00 323 1 18.9
2020-Jul-09 21:31 360 20.6
2020-Jul-09 21:16 207 0 20.6
2020-Jul-09 21:02 174 20.6
2020-Jul-09 20:47 005 20.6
2020-Jul-09 20:31 202 0 20.6
2020-Jul-09 20:15 135 0 20.0
2020-Jul-09 20:00 274 1 20.0
2020-Jul-09 19:45 190 0 20.0
2020-Jul-09 19:30 204 2 18.9
2020-Jul-09 19:15 175 0 18.9
2020-Jul-09 19:00 199 2 18.3
2020-Jul-09 18:45 191 0 18.9
2020-Jul-09 18:30 216 1 17.8
2020-Jul-09 18:16 153 1 17.8
2020-Jul-09 18:01 189 2 17.2
2020-Jul-09 17:47 202 0 16.7
2020-Jul-09 17:31 203 0 16.1
2020-Jul-09 17:16 190 15.0
2020-Jul-09 17:00 263 0 14.4
2020-Jul-09 16:45 217 14.4
2020-Jul-09 16:30 197 14.4
2020-Jul-09 16:15 196 0 13.9
2020-Jul-09 16:00 192 0 13.9
2020-Jul-09 15:45 192 13.9
2020-Jul-09 15:30 192 0 13.9
2020-Jul-09 15:15 191 0 13.9
2020-Jul-09 15:02 182 0 13.9
2020-Jul-09 14:47 180 0 13.3
2020-Jul-09 14:32 167 13.3
2020-Jul-09 14:15 115 12.8
2020-Jul-09 14:02 115 12.8
2020-Jul-09 13:46 098 12.2
2020-Jul-09 13:31 095 12.2
2020-Jul-09 13:15 095 12.2
2020-Jul-09 13:00 095 12.2
2020-Jul-09 12:45 095 12.2
2020-Jul-09 12:30 095 12.2
2020-Jul-09 12:15 095 12.2
2020-Jul-09 12:00 095 12.2
2020-Jul-09 11:45 095 12.2
2020-Jul-09 11:32 095 11.7
2020-Jul-09 11:17 095 12.2
2020-Jul-09 11:01 095 11.7
2020-Jul-09 10:46 095 12.2
2020-Jul-09 10:31 095 12.2
2020-Jul-09 10:15 095 12.2
2020-Jul-09 10:01 095 12.2
2020-Jul-09 09:46 095 12.2
2020-Jul-09 09:30 095 12.2
2020-Jul-09 09:15 095 12.2
2020-Jul-09 09:00 095 12.2
2020-Jul-09 08:45 095 12.2
2020-Jul-09 08:30 095 11.7
2020-Jul-09 08:15 095 11.7
2020-Jul-09 08:02 095 11.7
2020-Jul-09 07:46 095 11.7
2020-Jul-09 07:31 095 11.7
2020-Jul-09 07:16 095 12.2
2020-Jul-09 07:01 095 12.2
2020-Jul-09 06:46 095 12.8
2020-Jul-09 06:30 095 12.8
2020-Jul-09 06:16 095 13.3
2020-Jul-09 06:01 095 13.3
2020-Jul-09 05:45 095 13.9
2020-Jul-09 05:31 095 13.9
2020-Jul-09 05:15 095 15.0
2020-Jul-09 05:00 095 15.6
2020-Jul-09 04:45 095 15.6
2020-Jul-09 04:33 095 16.7
2020-Jul-09 04:16 095 17.8
2020-Jul-09 03:46 146 18.3
2020-Jul-09 03:31 146 18.9
2020-Jul-09 03:16 146 18.9
2020-Jul-09 03:01 146 19.4
2020-Jul-09 02:46 146 19.4
2020-Jul-09 02:30 207 20.0
2020-Jul-09 02:15 198 0 20.0
2020-Jul-09 02:00 213 0 20.6
2020-Jul-09 01:45 200 1 20.6
2020-Jul-09 01:30 209 2 21.1
2020-Jul-09 01:16 207 0 21.1
2020-Jul-09 01:03 198 0 21.1
2020-Jul-09 00:46 207 1 21.1
2020-Jul-09 00:31 197 3 21.1
2020-Jul-09 00:16 177 0 22.2
2020-Jul-09 00:00 223 22.2
2020-Jul-08 23:47 257 0 21.1
2020-Jul-08 23:32 342 21.1
2020-Jul-08 23:16 178 21.1
2020-Jul-08 23:02 208 1 21.1
2020-Jul-08 22:46 194 2 21.1
2020-Jul-08 22:30 191 1 21.1
2020-Jul-08 22:15 180 0 20.6
2020-Jul-08 22:00 111 20.6
2020-Jul-08 21:46 212 0 21.1
2020-Jul-08 21:30 257 0 20.6
2020-Jul-08 21:16 258 0 20.0
2020-Jul-08 21:00 215 3 18.9
2020-Jul-08 20:45 199 2 19.4
2020-Jul-08 20:30 202 3 18.9
2020-Jul-08 20:17 199 18.9
2020-Jul-08 20:01 198 0 18.9
2020-Jul-08 19:46 201 1 17.8
2020-Jul-08 19:34 185 2 17.2
2020-Jul-08 19:16 201 0 17.8
2020-Jul-08 19:01 192 1 17.8